Regional Weather Roundup
Issued by NWS

Home | Current Version | Previous Version | Text Only | Print | Product List | Glossary Off
Versions: 1 2 3 4 5 6 7 8 9 10 11 12 13 14 15 16 17 18 19 20 21 22 23 24 25 26 27 28 29 30 31 32 33 34 35 36 37 38 39 40 41 42 43 44 45 46 47 48 49 50

000
ASUS43 KDMX 302201
RWRIA

WEATHER ROUNDUP FOR IOWA
NATIONAL WEATHER SERVICE DES MOINES IA
500 PM CDT THU MAR 30 2017

NOTE: "FAIR" INDICATES FEW OR NO CLOUDS BELOW 12,000 FEET WITH NO
SIGNIFICANT WEATHER AND/OR OBSTRUCTIONS TO VISIBILITY.

* - THESE STATIONS ARE NOT NWS STATIONS...THUS NOT UNDER NWS
QUALITY CONTROL.  THEY ALSO DO NOT REPORT WEATHER SUCH
AS PRECIPITATION OR FOG.

IAZ001>003-012>014-020>022-031>034-043>046-302300-
   NORTHWEST IOWA

CITY           SKY/WX    TMP DP  RH WIND       PRES   REMARKS
CARROLL *      CLOUDY    43  43 100 NE20      29.69S
CHEROKEE *     CLOUDY    40  39  96 N15       29.75S WCI  32
DENISON *      CLOUDY    41  39  93 NE16      29.72R
LE MARS *      CLOUDY    43  39  87 NE14      29.77S
ORANGE CITY *  CLOUDY    39  37  93 NE9       29.75F WCI  33
SHELDON *      CLOUDY    39  37  93 NE13G20   29.75S WCI  32
SIOUX CITY     CLOUDY    44  39  82 N12       29.76R
SPENCER        CLOUDY    40  38  93 NE18      29.75S WCI  31
STORM LAKE *   CLOUDY    39  39 100 NE15G23   29.72S WCI  31
$$

IAZ055>058-069>071-079>083-090>094-302300-
   SOUTHWEST IOWA

CITY           SKY/WX    TMP DP  RH WIND       PRES   REMARKS
ATLANTIC *     CLOUDY    43  41  93 N15G22    29.68R
AUDUBON *      CLOUDY    43  39  87 N16       29.69R
CLARINDA *     CLOUDY    45  43  93 N15       29.68S
COUNCIL BLFS * CLOUDY    43  43 100 N15       29.70R
CRESTON *      CLOUDY    43  43 100 N16       29.66R
HARLAN  *      CLOUDY    43  43 100 N16       29.72R
LAMONI         CLOUDY    44  43  96 NE12      29.63R
RED OAK *      CLOUDY    45  43  93 N12G17    29.69R
SHENANDOAH *   CLOUDY    45  41  87 N13G18    29.69R
$$

IAZ047>049-059>061-072>074-084-302300-
   CENTRAL IOWA

CITY           SKY/WX    TMP DP  RH WIND       PRES   REMARKS
AMES           CLOUDY    43  40  89 NE14      29.67R
ANKENY *       CLOUDY    43  39  87 NE14      29.67S
BOONE *        CLOUDY    41  41 100 NE17G24   29.67R
CHARITON *     CLOUDY    43  41  93 N10G18    29.64R
DES MOINES     CLOUDY    44  40  85 NE16      29.66R
GRINNELL*      CLOUDY    41  38  91 N14G21    29.66R
MARSHALLTOWN   CLOUDY    41  39  93 NE18      29.66R
NEWTON *       CLOUDY    41  39  93 NE17      29.65R
PELLA *        CLOUDY    42  40  93 NE9       29.66R
PERRY *        CLOUDY    44  41  91 N14       29.68R
$$

IAZ004>006-015-016-023>025-035-036-302300-
   NORTH CENTRAL IOWA

CITY           SKY/WX    TMP DP  RH WIND       PRES   REMARKS
ALGONA *       CLOUDY    41  39  93 NE18      29.73S
CLARION *      CLOUDY    41  41 100 NE20      29.71R
ESTHERVILLE    CLOUDY    38  38 100 NE18      29.75S WCI  28
FORT DODGE *   CLOUDY    41  36  81 NE13G18   29.72R
MASON CITY     CLOUDY    40  37  89 N15       29.72F WCI  32
FOREST CITY *  CLOUDY    37  37 100 NE15G22   29.73S WCI  28
WEBSTER CITY * CLOUDY    41  39  93 N15       29.68R
IOWA FALLS *   CLOUDY    42  38  87 NE15      29.69S
$$

IAZ007>011-017>019-026>030-037>042-050>054-066-302300-
   NORTHEAST IOWA

CITY           SKY/WX    TMP DP  RH WIND       PRES   REMARKS
CEDAR RAPIDS   CLOUDY    41  40  96 NE20      29.62R
CHARLES CITY * CLOUDY    41  41 100 NE21      29.70F
CLINTON *      LGT RAIN  41  40  96 NE20      29.61S FOG
DECORAH *      CLOUDY    39  37  93 NE12G17   29.69S WCI  32
DUBUQUE        CLOUDY    40  40 100 NE17G24   29.63F FOG     WCI  31
MONTICELLO *   CLOUDY    41  39  93 NE13G18   29.64R
OELWEIN *      CLOUDY    41  39  93 NE18      29.67R
WATERLOO       CLOUDY    41  37  86 NE16      29.68R
$$

IAZ064-065-067-068-078-302300-
   EAST CENTRAL IOWA

CITY           SKY/WX    TMP DP  RH WIND       PRES   REMARKS
DAVENPORT      CLOUDY    42  40  92 NE21G28   29.59S
IOWA CITY      CLOUDY    44  40  85 NE13      29.63S
MUSCATINE *    CLOUDY    45  41  87 N13G22    29.60S
QUAD CITIES    CLOUDY    44  41  89 NE14G21   29.59S FOG
$$

IAZ062-063-075>077-085>089-095>099-302300-
   SOUTHEAST IOWA

CITY           SKY/WX    TMP DP  RH WIND       PRES   REMARKS
BURLINGTON     LGT RAIN  46  45  96 N12       29.57R FOG
FAIRFIELD *    CLOUDY    43  43 100 NE13      29.60R FOG
FORT MADISON * LGT RAIN  46  46 100 N10       29.57R
KEOKUK *       LGT RAIN  48  48 100 N12       29.55S
OSKALOOSA *    CLOUDY    42  41  96 NE12      29.63R FOG
OTTUMWA        CLOUDY    44  43  96 N13       29.61R FOG
WASHINGTON *   MIX PCPN  43  43 100 NE14G20   29.62S
$$

ABBREVIATIONS USED IN REMARKS
   TC - TEMPERATURES IN CELSIUS
  WCI - WIND CHILL INDEX
   HX - HEAT INDEX
  VSB - VISIBILITY
$$





USA.gov is the U.S. government's official web portal to all federal, state and local government web resources and services.